Overview Statistics Trail Chart Weather Telemetry Raw packets
 

This is the latest recevied weather packets stored in our database for station/object KD7DVD-1. If no packets are shown the sender has not sent any weather packets the latest 10 day(s).

<< 12 13 14 15 16 17 18 >>
Time Temp. Humidity Pressure Rain* Wind** Luminosity Snow
1788069617 14.44° C 82% 1018.7 hPa 0 mm - - -
1788067817 14.44° C 82% 1018.6 hPa 0 mm - - -
1788066017 15° C 79% 1018.4 hPa 0 mm - - -
1788064219 15° C 80% 1018.3 hPa 0 mm - - -
1788062417 15° C 80% 1017.8 hPa 0 mm - - -
1788060616 15.56° C 81% 1017.6 hPa 0 mm - - -
1788058816 16.11° C 85% 1017.3 hPa 0 mm - - -
1788057016 16.67° C 85% 1017.2 hPa 0 mm - - -
1788055216 16.11° C 84% 1017.1 hPa 0 mm - - -
1788053416 16.67° C 82% 1017 hPa 0 mm - - -
1788051616 18.33° C 74% 1017.2 hPa 0 mm - - -
1788049816 18.89° C 75% 1017 hPa 0 mm - - -
1788048017 19.44° C 68% 1016.9 hPa 0 mm - - -
1788046217 20° C 68% 1016.9 hPa 0 mm - - -
1788044416 19.44° C 73% 1017.1 hPa 0 mm - - -
1788042616 18.89° C 70% 1017.2 hPa 0 mm - - -
1788040816 18.89° C 67% 1017.2 hPa 0 mm - - -
1788039016 18.33° C 69% 1017.5 hPa 0 mm - - -
1788037221 17.78° C 77% 1017.5 hPa 0 mm - - -
1788035416 17.22° C 74% 1017.4 hPa 0 mm - - -
1788033616 17.22° C 83% 1017.4 hPa 0 mm - - -
1788031822 15.56° C 86% 1017.3 hPa 0 mm - - -
1788030015 15.56° C 83% 1017.1 hPa 0 mm - - -
1788028217 15° C 88% 1017.2 hPa 0 mm - - -
1788026417 15° C 85% 1017.1 hPa 0 mm - - -

* Rain latest hour (hover to see other rain measurements)
** Current wind speed in m/s (hover to see current wind gust speed)